Skip Page Navigation
NASA JPL Caltech
NASA Logo - Jet Propulsion Laboratory + View the NASA Portal
+ Near-Earth Object (NEO) Program
Search JPL
JPL Home Earth Solar System Stars & Galaxies Technology
JPL Solar System Dynamics
BODIES ORBITS EPHEMERIDES TOOLS PHYSICAL DATA DISCOVERY FAQ SITE MAP
JPL Small-Body Database Browser
Search: [ help ]  
144 Vibilia
Classification: Main-belt Asteroid          SPK-ID: 2000144
Ephemeris | Orbit Diagram | Orbital Elements | Physical Parameters | Discovery Circumstances ]

[ hide orbit diagram ]
Orbit Diagram
Note: Make sure you have Java enabled on your browser to see the applet. This applet is provided as a 3D orbit visualization tool. The applet was implemented using 2-body methods, and hence should not be used for determining accurate long-term trajectories (over several years or decades) or planetary encounter circumstances. For accurate long-term ephemerides, please instead use our Horizons system.
Orbit Viewer

Additional Notes: the orbits shown in the applet are color coded. The planets are white lines, and the asteroid/comet is a blue line. The bright white line indicates the portion of the orbit that is above the ecliptic plane, and the darker portion is below the ecliptic plane. Likewise for the asteroid/comet orbit, the light blue indicates the portion above the ecliptic plane, and the dark blue the portion below the ecliptic plane.

Orbit Viewer applet originally written and kindly provided by Osamu Ajiki (AstroArts), and further modified by Ron Baalke (JPL).


Orbital Elements at Epoch 2456400.5 (2013-Apr-18.0) TDB
Reference: JPL 63 (heliocentric ecliptic J2000)
 Element Value Uncertainty (1-sigma)   Units 
e .2352322948094455 5.8702e-08  
a 2.65500906588541 9.5105e-09 AU
q 2.030465190577303 1.5527e-07 AU
i 4.807811343688524 7.1337e-06 deg
node 76.43548348357388 7.979e-05 deg
peri 293.4393821073019 8.0816e-05 deg
M 227.5707194809976 1.421e-05 deg
tp 2456981.771404169017
(2014-Nov-20.27140417)
6.3685e-05 JED
period 1580.146812553432
4.33
8.4904e-06
2.325e-08
d
yr
n .2278269317382347 1.2241e-09 deg/d
Q 3.279552941193517 1.1748e-08 AU
  Orbit Determination Parameters
   # obs. used (total)      1111  
   data-arc span      39413 days (107.91 yr)  
   first obs. used      1905-05-26  
   last obs. used      2013-04-22  
   planetary ephem.      DE405  
   SB-pert. ephem.      SB405-CPV-2  
   condition code      0  
   fit RMS      .57605  
   data source      ORB  
   producer      Otto Matic  
   solution date      2013-Apr-29 12:32:37  

Additional Information
 Earth MOID = 1.0355 AU 
 T_jup = 3.343 
[ show covariance matrix ]

Ephemeris | Orbit Diagram | Orbital Elements | Physical Parameters | Discovery Circumstances ]

Physical Parameter Table
Parameter Symbol Value Units Sigma Reference Notes
absolute magnitude H 7.91 mag n/a IRAS-A-FPA-3-RDR-IMPS-V6.0 IRAS observations used: 15
magnitude slope G 0.17   n/a PDS3 (MPC 17257) Fit
diameter diameter 142.38 km 2.6 IRAS-A-FPA-3-RDR-IMPS-V6.0 IRAS observations used: 15
rotation period rot_per 13.819 h n/a Asteroid Lightcurve DataBase (Rev. 2013-May-01) Published Reference List:
[Zappala, V.; Scaltriti, F.; Di Martino, M. (1983) Icarus 56, 325-344.]
[Harris, A.W.; Young, J.W. (1989) Icarus 81, 314-364.]
[Behrend, R. (2006) Observatoire de Geneve web site, http://obswww.unige.ch/~behrend/page_cou.html]
[Behrend, R. (2011) Observatoire de Geneve web site, http://obswww.unige.ch/~behrend/page_cou.html]
geometric albedo albedo 0.0597   0.002 IRAS-A-FPA-3-RDR-IMPS-V6.0 IRAS observations used: 15
B-V BV .727 mag .027 EAR-A-5-DDR-UBV-MEAN-VALUES-V1.1 #obs=5; phase (min.=1.88, mean=19.09, max.=27.75) deg.
U-B UB .402 mag .038 EAR-A-5-DDR-UBV-MEAN-VALUES-V1.1 #obs=5; phase (min.=1.88, mean=19.09, max.=27.75) deg.
Tholen spectral type spec_T C   n/a EAR-A-5-DDR-TAXONOMY-V4.0 used 7 color indices; used ground-based radiometric albedo
SMASSII spectral type spec_B Ch   n/a EAR-A-5-DDR-TAXONOMY-V4.0 based on a high-resolution spectrum by Xu et al. (1995) or Bus and Binzel (2002)

144 Vibilia          Discovered 1875-Jun-03 by Peters, C. H. F. at Clinton
Reference: DISCOVERY.DBLast Updated: 2003-08-29
Ephemeris | Orbit Diagram | Orbital Elements | Physical Parameters | Discovery Circumstances ]
ABOUT SSD CREDITS/AWARDS PRIVACY/COPYRIGHT GLOSSARY LINKS
FirstGov 2013-May-23 00:55 UT
(server date/time)  
NASA Home Page
Site Manager:   Donald K. Yeomans
Webmaster  Alan B. Chamberlin